Location: Knowlton
(51.2333°N, 1.2667°E)
Time: 05:09:26
(UTC+00:00)

Timation 2 Rocket - Pass Details

Date: 18 April 2021
Orbit: 907 x 1074 km, 70.0° (Epoch: 06 May)

Event Time Altitude Azimuth Distance (km) Brightness Sun altitude
Exits shadow 21:54:58 10° 212° (SSW) 2,828 6.2 -22.5°
Reaches altitude 10° 21:55:02 10° 213° (SSW) 2,807 6.2 -22.5°
Maximum altitude 22:01:36 85° 302° (WNW) 1,002 4.0 -23.0°
Drops below altitude 10° 22:07:56 10° 31° (NNE) 2,703 6.7 -23.5°
Sets 22:10:26 0° 33° (NNE) 3,630 7.4 -23.7°
